Location: Pl�tzky
(52.0521°N, 11.8020°E)
Time: 14:52:01
(UTC+00:00)

USA 229 - Pass Details

Date: 29 February 2020
Orbit: 986 x 1226 km, 63.4° (Epoch: 26 March)

Event Time Altitude Azimuth Distance (km) Brightness Sun altitude
Rises 19:31:31 0° 281° (W) 3,798 7.9 -25.0°
Reaches altitude 10° 19:34:24 10° 291° (WNW) 2,879 7.0 -25.4°
Maximum altitude 19:40:30 33° 354° (N) 1,750 5.0 -26.3°
Enters shadow 19:44:35 20° 45° (NE) 2,370 5.3 -26.9°
